Location: Klein M�hlingen
(51.9472°N, 11.7453°E)
Time: 22:48:07
(UTC+00:00)

COSMOS 2428 - Pass Details

Date: 09 April 2020
Orbit: 846 x 856 km, 70.9° (Epoch: 29 May)

Event Time Altitude Azimuth Distance (km) Brightness Sun altitude
Rises 22:54:41 0° 330° (NNW) 3,427 6.8 -29.9°
Reaches altitude 10° 22:57:18 10° 337° (NNW) 2,486 6.0 -29.9°
Maximum altitude 23:02:41 42° 48° (NE) 1,202 3.7 -30.0°
Enters shadow 23:03:38 39° 73° (ENE) 1,261 3.6 -30.0°
